User: anonymous   Login
Location: Smithers
(54.7670°N, 127.1670°W)
Time: 18:25:37
(UTC-08:00)
Language:

ERBS - Orbit

View from above orbital plane
View from above orbital plane
View from above satellite
View from above satellite

Ground track
Ground track

The orbit data is extracted from the following two-line orbital elements,

1 15354U 84108B   15064.14745059  .00011064  00000-0  34468-3 0  9990
2 15354 057.0111 112.2262 0013014 347.0429 013.0285 15.33743370669588
Epoch (UTC): 05 March 2015 03:32:19
Eccentricity: 0.0013014
inclination: 57.0111°
perigee height: 456 km
apogee height: 473 km
right ascension of ascending node: 112.2262°
argument of perigee: 347.0429°
revolutions per day: 15.33743370
mean anomaly at epoch: 13.0285°
orbit number at epoch: 66958

The dashed part of the orbit path shows where the satellite is in the earth's shadow,  

DLR